STARLINK-35542, 66064

Orbit data source: Space-Track

STARLINK-35542, 66064 is a payload satellite owned by SpaceX/Seattle (US) in LEO that was launched on Sun, 19 Oct 2025 UTC via an FALCON 9 launch vehicle from the Air Force Eastern Test Range (AFETR). Payload-class satellites include a variety of spacecraft equipped with specific instruments for various scientific and technological missions. These include communications satellites like Starlink; space stations such as the ISS; scientific satellites like the Hubble; Earth observation satellites from companies like Planet Labs, Umbra, and HawkEye 360; GPS; miniature CubeSats for education and research; and military/defense satellites.

Loading next visibility...
Identifier
66064, 2025-235G
Orbit
LEO
Country
Flag of USUS
Related business
Manufacturer
SpaceX/Seattle
Mission
Operational Commercial Communications
Bus & Motor
STARLINK V2MO, Unknown motor
Mass
575 kg wet, ~530 kg dry
Launch date (UTC)
2025-10-19 (8 months ago)
Launch vehicle
FALCON 9
Launch site
Air Force Eastern Test Range (AFETR)
Object type
Payload
Rocket body
Debris
Shape & HBR
Box + 2 Pan, 17.7 m
Radar Cross Section
36.964 m², Large (>1 m²)

Expand to show TLE details & history
Last TLE update: 16 hours ago

TLE from 16 hours ago
0 STARLINK-35542
1 66064U 25235G   26171.19862346  .00019654  00000-0  67387-3 0  9994
2 66064  53.1600 129.2980 0001526  90.1707 269.9468 15.30203455 38618
Epoch: 2026-06-20T04:46Z
TLE epoch observation values (Epoch: 2026-06-20T04:46:01.066Z)
Latitude
-0.00009°
Longitude
149.3768°
Altitude
476.106 km
Speed
7.629 km/s
True Right ascension
08h 37m 11s
True Declination
0° 00' 00"
Sunlit
Object was in daylight at epoch
Visualization orbit readout
Latitude
Unknown
Longitude
Unknown
Altitude
Unknown
Speed
Unknown
Apparent Right ascension
Unknown
Apparent Declination
Unknown
Sunlit
N/A
Visualization observer readout
Local Sidereal Time
07:18:48
Azimuth
Unknown
Elevation
Unknown
Doppler factor
Unknown
Orbital elements
Apogee altitude
476.507 km
Perigee altitude
474.415 km
Semi-major axis
6,853.598 km
Eccentricity
0.00015
Inclination
53.16°
RAAN
129.298°
Arg. of periapsis
90.1707°
True anomaly
269.92931°
Mean anomaly
269.9468°
Eccentric anomaly
269.93806°
Mean motion
3.8253 °/min
Orbital period
94.11 mins
BSTAR
0.00067387
Loading maneuver chart data...
Computing Atmospheric mass density...
Loading historical data...
Loading historical data...
Loading historical data...
Loading historical data...
Loading historical data...
Loading historical data...
Loading historical data...

Documentation

Showing up to 5 results
|